Location: Buch
(50.1863°N, 11.0141°E)
Time: 13:37:26
(UTC+00:00)

STARLINK-60 - Pass Details

Date: 18 January 2020
Orbit: 407 x 416 km, 53.0° (Epoch: 17 February)

Event Time Altitude Azimuth Distance (km) Brightness Sun altitude
Exits shadow 05:57:20 17° 294° (WNW) 1,145 4.6 -10.9°
Maximum altitude 05:59:46 60° 12° (NNE) 487 3.3 -10.6°
Drops below altitude 10° 06:03:08 10° 94° (E) 1,510 7.2 -10.0°
Sets 06:05:15 0° 98° (E) 2,376 8.7 -9.7°
